Location: *
(49.2333°S, 177.3500°W)
Time: 03:45:01
(UTC+00:00)

Daily predictions for brighter satellites

Satellite Brightness Start Highest point End
(mag) Time Altitude Azimuth Time Altitude Azimuth Time Altitude Azimuth
Cosmos 1340 3.2 04:31:35 10° S 04:35:16 39° ESE 04:38:54 10° NE
Cosmos 2285 Rocket 4.2 04:29:49 10° NNW 04:36:19 90° ENE 04:42:51 10° SSE
COSMO-SKYMED 1 2.7 04:33:06 10° NNE 04:37:24 56° ESE 04:41:45 10° S
Cosmos 2227 Rocket 4.0 04:36:33 10° S 04:38:39 12° SSE 04:40:43 10° SE
Meteor 1-31 Rocket 2.9 04:35:51 10° SSE 04:39:45 61° E 04:43:34 10° N
NOAA 6 4.2 04:35:55 10° SSE 04:41:06 57° E 04:46:14 10° N
Cosmos 1302 Rocket 4.3 04:36:54 10° NNW 04:42:12 71° WSW 04:47:32 10° SSE
Cosmos 2369 Rocket 2.9 04:37:56 10° N 04:43:02 36° ENE 04:48:12 10° SE
Cosmos 1707 4.1 04:41:57 10° SSE 04:44:57 20° ESE 04:47:54 10° ENE
NOSS 3-1 (C) 3.5 04:41:00 10° SW 04:47:49 68° SE 04:53:51 10° NE
CSL-04 Rocket 4.2 04:42:40 10° SSE 04:47:51 41° E 04:52:55 10° NNE
Cosmos 2278 Rocket 4.0 04:51:13 10° W 04:55:46 24° SW 05:00:20 10° SSE
Cosmos 1606 Rocket 4.4 04:54:51 10° NNW 04:59:10 52° WSW 05:03:36 10° S
Meteor 1-15 Rocket 4.3 04:55:05 10° N 05:00:59 71° E 05:06:54 10° SSE
Cosmos 2228 3.0 04:57:06 10° N 05:01:23 77° E 05:05:45 10° SSE
Cosmos 2297 Rocket 4.0 05:03:29 10° S 05:06:03 13° SSE 05:07:48 11° SE
Cosmos 1812 Rocket 4.0 05:02:17 10° NNE 05:06:29 42° E 05:10:42 10° SSE
Abrixas rocket 2.8 05:03:06 10° W 05:06:33 60° NNW 05:10:00 10° ENE
SPOT 3 Rocket 4.4 05:04:47 10° SE 05:09:23 30° E 05:13:57 10° NNE
Cosmos 1992 Rocket 4.0 05:07:37 10° NNW 05:12:51 73° ENE 05:18:09 10° SSE
USA 215 4.3 05:08:32 13° ESE 05:13:32 30° NE 05:19:12 10° N
ADEOS Rocket 3.9 05:07:57 10° SSE 05:15:48 71° WSW 05:23:20 10° NNW
Meteor 2-5 Rocket 3.8 05:10:03 10° S 05:16:02 63° ESE 05:21:50 10° NNE
ADEOS II 3.2 05:16:13 10° S 05:21:17 44° WSW 05:26:17 10° NW
Cosmos 1464 Rocket 4.1 05:18:12 10° N 05:24:38 89° E 05:31:06 10° S
Cosmos 1408 Rocket 4.5 05:22:24 10° S 05:26:21 28° ESE 05:30:14 10° NE
CZ-4 R/B 2.0 05:23:50 15° SE 05:26:50 36° E 05:30:32 10° NNE
MOS 1 Rocket 3.1 05:24:08 10° SSE 05:28:37 87° WSW 05:32:56 10° NNW
AVUM R/B 3.4 05:26:09 10° SW 05:28:37 49° WNW 05:30:52 10° NNE
Cosmos 1943 Rocket 2.8 05:26:21 10° N 05:31:31 37° ENE 05:34:51 20° SE
CSL-04 Debris 4.2 05:26:35 10° SSE 05:32:13 78° ENE 05:37:46 10° NNW
Cosmos 968 Rocket 3.4 05:27:38 10° SSW 05:32:51 89° ESE 05:38:01 10° NNE
Okean 3 Rocket 3.5 05:29:34 10° S 05:34:03 64° ESE 05:38:29 10° NNE
Cosmos 1076 Rocket 4.2 05:30:48 10° S 05:34:42 31° ESE 05:38:34 10° NE
Cosmos 839 Rocket 4.1 05:31:07 10° NNW 05:37:16 86° NE 05:43:01 15° SE
Nadezhda 4 Rocket 4.0 05:30:57 10° S 05:37:24 79° E 05:43:47 10° NNE
Cosmos 2219 3.4 05:32:05 10° SSW 05:37:41 51° SE 05:43:15 10° NE
YAOGAN 1 3.1 05:38:37 22° SE 05:40:54 37° E 05:44:58 10° NNE
Ariane Rocket 3.7 05:36:13 10° S 05:41:16 55° WSW 05:46:15 10° NW
Cosmos 405 Rocket 2.6 05:45:18 10° S 05:49:14 66° ESE 05:53:02 10° NNE
Helios 1B rocket 3.5 05:45:13 10° N 05:49:18 49° W 05:53:27 10° SSW
NOSS 3-1 (A) 3.8 05:44:43 10° SW 05:51:24 70° NW 05:57:20 10° NNE
Cosmos 1092 Rocket 4.0 05:50:41 10° S 05:57:10 82° E 06:03:31 10° N
Cosmos 1766 4.3 05:55:00 10° NNE 05:57:30 29° NE 05:57:30 29° NE
Cosmos 1241 Rocket 4.5 05:56:05 10° SW 06:02:30 62° SE 06:06:48 21° ENE
Cosmos 2034 Rocket 4.4 05:58:48 10° NNW 06:04:57 64° WSW 06:11:14 10° S
CZ-2C R/B 2.7 06:10:10 42° ESE 06:10:52 45° E 06:15:35 10° N
ATLAS 2AS CENTAUR R/B 2.3 06:06:05 10° SW 06:12:09 72° SE 06:15:57 25° NE
Cosmos 2026 Rocket 3.9 06:06:31 10° S 06:12:42 62° ESE 06:18:43 10° NNE
Cosmos 2084 4.1 06:07:50 10° WNW 06:12:42 60° SW 06:14:47 33° SSE
Cosmos 1777 Rocket 4.3 06:08:44 10° SSW 06:14:05 68° WNW 06:19:22 10° N
SMAP 3.0 06:12:42 34° SSE 06:14:45 68° ENE 06:19:25 10° N
Meteor 1-28 Rocket 4.5 06:11:15 10° N 06:14:55 43° W 06:18:41 10° SSW
Meteor 1-24 Rocket 4.0 06:12:04 10° SSW 06:18:13 77° W 06:24:12 10° N
Cosmos 2195 Rocket 4.4 06:12:18 10° S 06:18:36 77° E 06:24:53 10° NNE
SJ-12 3.8 06:18:48 62° SE 06:19:20 71° ENE 06:23:32 10° N
IDEFIX/ARIANE 42P 2.8 06:20:47 46° E 06:20:47 46° E 06:25:50 10° N
Cosmos 1707 4.1 06:17:19 10° SSW 06:21:08 42° W 06:24:53 10° NNW
Cosmos 2227 Rocket 2.9 06:19:13 10° SSW 06:23:44 35° SSE 06:23:44 35° SSE
Cosmos 1656 Rocket 3.8 06:19:46 10° N 06:24:48 46° ENE 06:24:48 46° ENE
Cosmos 2369 Rocket 3.1 06:21:35 10° NW 06:26:59 44° SW 06:30:51 19° SSE
PAYLOAD A 4.1 06:24:38 18° SSE 06:28:49 89° ENE 06:34:13 10° NNW
Radarsat 4.5 06:26:34 28° SSE 06:29:27 84° ENE 06:34:43 10° NNW
Cosmos 44 Rocket 4.5 06:25:29 10° SSW 06:28:20 27° S 06:28:20 27° S
Cosmos 1766 Rocket 3.8 06:33:52 10° SSW 06:38:27 70° W 06:42:57 10° N
Cosmos 1655 Rocket 4.0 06:36:31 10° S 06:42:59 86° W 06:49:19 10° N
SL-19 R/B 4.5 06:46:07 59° ESE 06:46:58 65° ENE 06:53:31 10° N
NOSS 2-3 (E) 4.2 06:42:35 10° SW 06:49:37 72° SE 06:50:02 70° ESE
Cosmos 2297 Rocket 3.3 06:46:21 10° SSW 06:49:38 30° S 06:49:38 30° S
BREEZE-M DEB (TANK) 4.3 06:48:40 10° W 06:52:29 60° NNW 06:56:03 34° NE
USA 215 3.1 06:55:53 63° ESE 06:57:08 85° NNE 07:03:45 10° NW
Meteor 1-21 Rocket 4.2 06:51:33 10° SSW 06:57:31 88° W 06:59:41 41° N
Cosmos 1898 Rocket 4.4 06:52:43 10° SSW 06:56:05 39° S 06:56:05 39° S
CZ-4 R/B 3.5 06:59:54 18° SSW 07:01:44 25° WSW 07:05:02 10° WNW
Cosmos 2279 Rocket 3.9 06:59:50 10° N 07:06:06 90° WSW 07:07:02 67° S
Cosmos 1943 Rocket 3.1 07:09:46 10° NW 07:15:12 44° SW 07:16:24 39° SSW
YAOGAN 1 4.5 07:15:47 25° SW 07:16:53 28° WSW 07:20:36 10° WNW
NOSS 2-3 (C) 4.4 07:10:07 10° SW 07:16:33 76° WSW 07:16:33 76° WSW
Gbstr 26 Del rocket 4.4 07:26:02 10° WSW 07:34:07 81° NW 07:34:07 81° NW
CZ-2C R/B 4.3 07:49:34 28° WSW 07:49:34 28° WSW 07:53:10 10° WNW
IDEFIX/ARIANE 42P 4.5 08:01:35 27° W 08:01:35 27° W 08:04:45 10° WNW
ATLAS 2AS CENTAUR R/B 4.1 07:57:30 10° WSW 08:02:30 27° WNW 08:03:29 26° NW
Cosmos 2227 Rocket 4.2 08:03:17 10° SW 08:05:35 24° SW 08:05:35 24° SW
